Terug naar catalogus

STARLINK-33982

ActiefCommunicatieVLEO
NORAD 63707·PAYLOAD·🇺🇸 United States

Gelanceerd Apr 28, 2025 vanaf Vandenberg Space Force Base

Loading…

Volgende Passages (komende 24 uur)

TLE

VersSource: CelesTrak SupGP

Epoch: Sep 15, 2026, 03:34 UTC

1 63707C 25087L   26258.14909722 -.00020018  00000+0 -59161-3 0  2587
2 63707  53.1594  58.3958 0001053  91.8073 237.4486 15.34391369    16

Volg STARLINK-33982 in realtime met AllMySat

Download on the App Store